STARLINK-2161, 47747

Orbit data source: Space-Track

STARLINK-2161, 47747 is a payload satellite owned by SpaceX/Seattle (US) in LEO that was launched on Thu, 04 Mar 2021 UTC via an FALCON 9 launch vehicle from the Air Force Eastern Test Range (AFETR). Payload-class satellites include a variety of spacecraft equipped with specific instruments for various scientific and technological missions. These include communications satellites like Starlink; space stations such as the ISS; scientific satellites like the Hubble; Earth observation satellites from companies like Planet Labs, Umbra, and HawkEye 360; GPS; miniature CubeSats for education and research; and military/defense satellites.

Loading next visibility...
Identifier
47747, 2021-017AB
Orbit
LEO
Country
Flag of USUS
Related business
Manufacturer
SpaceX/Seattle
Mission
Operational Commercial Communications
Bus & Motor
STARLINK, Unknown motor
Mass
260 kg wet, ~248 kg dry
Launch date (UTC)
2021-03-04 (5 years ago)
Launch vehicle
FALCON 9
Launch site
Air Force Eastern Test Range (AFETR)
Object type
Payload
Rocket body
Debris
Shape & HBR
Box + 1 Pan, 10.1 m
Radar Cross Section
13.562 m², Large (>1 m²)

Expand to show TLE details & history
Last TLE update: 10 hours ago

TLE from 10 hours ago
0 STARLINK-2161
1 47747U 21017AB  25346.95314747 -.00001438  00000-0 -77711-4 0  9995
2 47747  53.0521 230.9923 0001444  91.1991 268.9163 15.06385089264820
Epoch: 2025-12-12T22:52Z
TLE epoch observation values (Epoch: 2025-12-12T22:52:31.941Z)
Latitude
-0.00005°
Longitude
165.9718°
Altitude
548.155 km
Speed
7.589 km/s
True Right ascension
15h 23m 58s
True Declination
0° 00' 00"
Sunlit
Object was in daylight at epoch
Visualization orbit readout
Latitude
Unknown
Longitude
Unknown
Altitude
Unknown
Speed
Unknown
Apparent Right ascension
Unknown
Apparent Declination
Unknown
Sunlit
N/A
Visualization observer readout
Local Sidereal Time
07:30:58
Azimuth
Unknown
Elevation
Unknown
Doppler factor
Unknown
Orbital elements
Apogee altitude
548.528 km
Perigee altitude
546.528 km
Semi-major axis
6,925.665 km
Eccentricity
0.00014
Inclination
53.0521°
RAAN
230.9923°
Arg. of periapsis
91.1991°
True anomaly
268.89976°
Mean anomaly
268.9163°
Eccentric anomaly
268.90803°
Mean motion
3.76575 °/min
Orbital period
95.6 mins
BSTAR
-0.000077711
Loading maneuver chart data...
Computing Atmospheric mass density...

Documentation

Showing up to 5 results
|